Location: ??????
(56.0120°N, 39.1740°E)
Time: 06:28:53
(UTC+00:00)

USA 238 DEB - Pass Details

Date: 14 April 2026
Orbit: 883 x 1328 km, 63.4° (Epoch: 10 January)

Event Time Altitude Azimuth Distance (km) Brightness Sun altitude
Rises 17:17:07 0° 307° (NW) 3,864 9.0 -7.1°
Reaches altitude 10° 17:19:39 10° 307° (NW) 2,967 7.8 -7.4°
Maximum altitude 17:26:49 89° 222° (SW) 1,199 4.0 -8.3°
Enters shadow 17:34:38 11° 131° (SE) 3,221 5.5 -9.2°
